Flag for Germany Weather past 2 weeks in Sonneberg, Thuringia, Germany

Now
80 °F

Overcast.


Feels Like: 81 °F
Forecast: 54 / 65 °F
Wind: 1 mph from Southwest

Location: Hof

Current Time: Jul 8, 2015 at 12:10:51 AM

Latest Report: Jul 7, 2015 at 10:00 PM


Visibility: 13 mi

Pressure: 29.63 "Hg

Humidity: 52%

Dew point: 60 °F

Location of SonnebergLocation

Historic Weather in Sonneberg — Graph

°F

Sonneberg temperature yesterday

Maximum temperature yesterday: 89 °F (at 6:00 PM)
Minimum temperature yesterday: 56 °F (at 6:00 AM)
Average temperature yesterday: 73 °F

Past Weeks' High & Low Weather Summary

 TemperatureHumidityPressure
High91 °F (Jul 5, 4:00 PM)100% (Jun 25, 6:00 AM)30.27 "Hg (Jun 25, 6:00 AM)
Low43 °F (Jun 25, 5:00 AM)27% (Jul 5, 4:00 PM)29.63 "Hg (Jul 7, 10:00 PM)
Average66 °F65%30.09 "Hg
* Reported Jun 22 10:00 PM — Jul 7 10:00 PM, Sonneberg, Weather by CustomWeather, © 2015

Note: Actual official high and low records may vary slightly from our data, if they occured in-between our weather recording intervals... More about our weather records

Advertising

Sonneberg weather history for previous 24 hours

 ConditionsComfort  
Time TempWeatherWind HumidityBarometerVisibility
10:00 PM
Tue, Jul 7
80 °FOvercast.1 mph52%29.63 "Hg12 mi
9:00 PM82 °FPartly sunny.2 mph48%29.64 "Hg22 mi
8:00 PM85 °FScattered clouds.2 mph44%29.66 "Hg25 mi
7:00 PM87 °FPassing clouds.3 mph41%29.67 "Hg25 mi
6:00 PM89 °FScattered clouds.5 mph38%29.71 "Hg25 mi
5:00 PM88 °FPassing clouds.3 mph40%29.74 "Hg25 mi
4:00 PM86 °FPassing clouds.3 mph40%29.77 "Hg22 mi
3:00 PM86 °FPassing clouds.5 mph41%29.79 "Hg22 mi
2:00 PM84 °FPassing clouds.3 mph38%29.83 "Hg22 mi
1:00 PM82 °FScattered clouds.3 mph50%29.85 "Hg22 mi
12:00 PM80 °FScattered clouds.3 mph47%29.89 "Hg25 mi
10:00 AM73 °FPassing clouds.3 mph53%29.95 "Hg19 mi
9:00 AM68 °FPassing clouds.3 mph62%29.99 "Hg19 mi
8:00 AM64 °FPassing clouds.2 mph69%30.02 "Hg16 mi
7:00 AM59 °FPassing clouds.2 mph74%30.04 "Hg16 mi
6:00 AM56 °FPassing clouds.1 mph84%30.06 "Hg12 mi
4:00 AM56 °FClear.2 mph83%30.08 "Hg12 mi
3:00 AM56 °FClear.1 mph90%30.09 "Hg10 mi
2:00 AM58 °FClear.1 mph85%30.09 "Hg10 mi
1:00 AM60 °FClear.1 mph78%30.10 "Hg12 mi
12:00 AM61 °FClear.1 mph74%30.10 "Hg14 mi
Weather by CustomWeather, © 2015

See weather overviewHow to use our weather pages